Atmospheric History
02/08/2018 19:41  to  2/9/2018 19:41
Change End Date:
To complete the export process:
1) Select all of the data below
2) Copy the data to the clipboard
3) Open a word processor such as Notepad
4) Paste the data into the word processor
5) Save the file

Date/Time (MST), AirTemp, RH, Dewpoint ,AvgWindSpeed, GustWindSpeed, WindDirection, PrecipType, PrecipIntensity, PrecipAccumulation, PrecipRate
02/09/2018 19:36, -5, 93, -6 ,3, 4, W, None, None, ,  
02/09/2018 19:34, -5, 93, -6 ,3, 4, W, None, None, ,  
02/09/2018 19:24, -5, 93, -6 ,4, 4, W, None, None, ,  
02/09/2018 19:21, -4, 93, -6 ,4, 5, W, None, None, ,  
02/09/2018 19:14, -5, 93, -7 ,4, 5, W, None, None, ,  
02/09/2018 19:07, -5, 93, -7 ,2, 3, W, None, None, ,  
02/09/2018 19:04, -5, 93, -7 ,2, 2, W, None, None, ,  
02/09/2018 18:54, -5, 93, -6 ,2, 6, W, None, None, ,  
02/09/2018 18:51, -5, 93, -6 ,4, 6, W, None, None, ,  
02/09/2018 18:44, -5, 93, -7 ,4, 6, W, None, None, ,  
02/09/2018 18:36, -6, 93, -7 ,4, 5, W, None, None, ,  
02/09/2018 18:34, -6, 93, -7 ,4, 5, W, None, None, ,  
02/09/2018 18:24, -6, 93, -7 ,4, 5, W, None, None, ,  
02/09/2018 18:21, -6, 93, -7 ,4, 5, W, None, None, ,  
02/09/2018 18:14, -6, 93, -7 ,4, 5, W, None, None, ,  
02/09/2018 18:06, -5, 94, -7 ,4, 4, W, None, None, ,  
02/09/2018 18:04, -5, 94, -7 ,4, 5, W, None, None, ,  
02/09/2018 17:54, -5, 94, -6 ,4, 4, W, None, None, ,  
02/09/2018 17:51, -5, 94, -6 ,4, 4, W, None, None, ,  
02/09/2018 17:44, -5, 94, -6 ,4, 4, W, None, None, ,  
02/09/2018 17:36, -4, 94, -5 ,4, 4, W, None, None, ,  
02/09/2018 17:34, -4, 94, -5 ,4, 4, W, None, None, ,  
02/09/2018 17:24, -3, 94, -5 ,3, 4, W, None, None, ,  
02/09/2018 17:21, -3, 94, -4 ,4, 4, W, None, None, ,  
02/09/2018 17:14, -3, 94, -4 ,4, 4, W, None, None, ,  
02/09/2018 17:06, -2, 94, -3 ,3, 3, SW, None, None, ,  
02/09/2018 17:03, -1, 94, -2 ,3, 3, SW, None, None, ,  
02/09/2018 16:53, 0, 94, -1 ,2, 2, SW, None, None, ,  
02/09/2018 16:51, 0, 94, -1 ,2, 2, SW, None, None, ,  
02/09/2018 16:43, 0, 94, -1 ,1, 1, W, None, None, ,  
02/09/2018 16:36, -1, 94, -2 ,1, 2, W, None, None, ,  
02/09/2018 16:33, -1, 94, -2 ,1, 2, W, None, None, ,  
02/09/2018 16:23, -1, 94, -2 ,2, 4, W, None, None, ,  
02/09/2018 16:21, -1, 94, -2 ,2, 4, W, None, None, ,  
02/09/2018 16:13, -1, 94, -2 ,4, 6, SW, None, None, ,  
02/09/2018 16:06, -1, 94, -2 ,5, 6, SW, None, None, ,  
02/09/2018 16:03, -1, 94, -2 ,4, 6, SW, None, None, ,  
02/09/2018 15:53, 0, 94, -1 ,6, 6, SW, None, None, ,  
02/09/2018 15:52, 1, 94, -1 ,6, 6, SW, None, None, ,  
02/09/2018 15:43, 2, 94, 1 ,4, 5, SW, None, None, ,  
02/09/2018 15:36, 2, 94, 1 ,4, 4, SW, None, None, ,  
02/09/2018 15:33, 2, 94, 1 ,4, 4, SW, None, None, ,  
02/09/2018 15:23, 1, 94, -1 ,4, 6, SW, None, None, ,  
02/09/2018 15:21, 1, 94, -1 ,4, 7, SW, None, None, ,  
02/09/2018 15:13, 1, 94, -1 ,7, 7, SW, None, None, ,  
02/09/2018 15:06, 1, 94, 0 ,6, 7, SW, None, None, ,  
02/09/2018 15:03, 1, 94, 0 ,7, 7, SW, None, None, ,  
02/09/2018 14:53, 1, 94, 0 ,5, 7, SW, None, None, ,  
02/09/2018 14:51, 1, 94, 0 ,6, 7, SW, None, None, ,  
02/09/2018 14:43, 1, 94, 0 ,6, 7, SW, None, None, ,  
02/09/2018 14:36, 1, 94, 0 ,6, 7, SW, Yes, , ,  
02/09/2018 14:33, 1, 94, 0 ,6, 7, SW, None, None, ,  
02/09/2018 14:23, 3, 95, 2 ,4, 6, SW, None, None, ,  
02/09/2018 14:21, 4, 95, 3 ,4, 4, SW, None, None, ,  
02/09/2018 14:13, 6, 96, 5 ,2, 2, SW, None, None, ,  
02/09/2018 14:06, 6, 96, 5 ,2, 2, SW, None, None, ,  
02/09/2018 14:03, 6, 96, 5 ,1, 2, S, None, None, ,  
02/09/2018 13:53, 2, 94, 1 ,3, 6, S, None, None, ,  
02/09/2018 13:51, 2, 94, 1 ,3, 6, S, None, None, ,  
02/09/2018 13:43, 2, 94, 0 ,5, 7, SW, None, None, ,  
02/09/2018 13:36, 2, 94, 1 ,6, 7, SW, None, None, ,  
02/09/2018 13:32, 2, 94, 1 ,7, 7, SW, None, None, ,  
02/09/2018 13:22, 3, 94, 2 ,5, 7, NW, None, None, ,  
02/09/2018 13:21, 3, 94, 2 ,5, 7, NW, None, None, ,  
02/09/2018 13:12, 3, 94, 2 ,7, 7, NW, None, None, ,  
02/09/2018 13:06, 3, 94, 1 ,7, 7, NW, None, None, ,  
02/09/2018 13:02, 2, 94, 1 ,7, 7, NW, None, None, ,  
02/09/2018 12:52, 2, 94, 1 ,6, 7, NW, None, None, ,  
02/09/2018 12:51, 2, 94, 1 ,6, 7, W, None, None, ,  
02/09/2018 12:42, 1, 94, 0 ,4, 6, W, None, None, ,  
02/09/2018 12:36, 1, 94, 0 ,4, 7, W, None, None, ,  
02/09/2018 12:32, 0, 94, -1 ,4, 7, SW, None, None, ,  
02/09/2018 12:22, 0, 94, -1 ,6, 7, W, None, None, ,  
02/09/2018 12:21, 0, 94, -1 ,6, 7, W, None, None, ,  
02/09/2018 12:12, 0, 94, -1 ,7, 7, W, None, None, ,  
02/09/2018 12:06, 0, 94, -1 ,6, 7, W, None, None, ,  
02/09/2018 12:02, 0, 94, -1 ,6, 7, W, None, None, ,  
02/09/2018 11:52, 0, 94, -1 ,6, 7, W, None, None, ,  
02/09/2018 11:51, 0, 94, -1 ,6, 7, W, None, None, ,  
02/09/2018 11:42, -1, 94, -2 ,5, 6, W, None, None, ,  
02/09/2018 11:36, -1, 94, -2 ,5, 6, W, None, None, ,  
02/09/2018 11:32, -1, 94, -2 ,5, 6, W, None, None, ,  
02/09/2018 11:22, -2, 94, -3 ,4, 6, W, None, None, ,  
02/09/2018 11:21, -2, 94, -3 ,4, 6, W, None, None, ,  
02/09/2018 11:12, -2, 94, -3 ,5, 6, W, None, None, ,  
02/09/2018 11:06, -1, 95, -2 ,4, 6, W, None, None, ,  
02/09/2018 11:02, -1, 95, -2 ,4, 6, W, None, None, ,  
02/09/2018 10:52, 1, 95, 0 ,3, 4, SW, None, None, ,  
02/09/2018 10:51, 1, 95, 0 ,2, 4, W, None, None, ,  
02/09/2018 10:41, 1, 95, 0 ,3, 4, NW, None, None, ,  
02/09/2018 10:36, 0, 94, -1 ,1, 3, W, None, None, ,  
02/09/2018 10:31, 0, 94, -1 ,3, 3, NW, None, None, ,  
02/09/2018 10:21, -2, 94, -3 ,2, 4, NW, None, None, ,  
02/09/2018 10:21, -2, 94, -3 ,2, 4, NW, None, None, ,  
02/09/2018 10:11, -3, 94, -4 ,4, 4, NW, None, None, ,  
02/09/2018 10:06, -3, 93, -5 ,4, 4, NW, None, None, ,  
02/09/2018 10:01, -4, 93, -5 ,4, 4, NW, None, None, ,  
02/09/2018 09:51, -5, 93, -6 ,4, 5, NW, None, None, ,  
02/09/2018 09:51, -5, 93, -6 ,4, 5, NW, None, None, ,  
02/09/2018 09:41, -5, 93, -7 ,5, 6, NW, None, None, ,  
02/09/2018 09:36, -6, 93, -7 ,4, 6, NW, None, None, ,  
02/09/2018 09:31, -6, 93, -8 ,5, 6, NW, None, None, ,  
02/09/2018 09:21, -7, 93, -9 ,4, 5, NW, None, None, ,  
02/09/2018 09:21, -7, 93, -9 ,4, 5, NW, None, None, ,  
02/09/2018 09:11, -8, 93, -9 ,4, 4, NW, None, None, ,  
02/09/2018 09:06, -8, 93, -10 ,4, 4, NW, None, None, ,  
02/09/2018 09:01, -9, 93, -10 ,1, 4, W, None, None, ,  
02/09/2018 08:51, -10, 93, -11 ,3, 4, NW, None, None, ,  
02/09/2018 08:41, -10, 93, -11 ,3, 4, NW, None, None, ,  
02/09/2018 08:36, -10, 93, -11 ,3, 4, NW, None, None, ,  
02/09/2018 08:31, -10, 93, -11 ,3, 4, N, None, None, ,  
02/09/2018 08:21, -10, 93, -11 ,4, 4, N, None, None, ,  
02/09/2018 08:21, -10, 93, -11 ,4, 4, N, None, None, ,  
02/09/2018 08:11, -10, 93, -12 ,4, 5, NW, None, None, ,  
02/09/2018 08:06, -10, 93, -11 ,4, 5, NW, None, None, ,  
02/09/2018 08:01, -10, 93, -11 ,4, 4, NW, None, None, ,  
02/09/2018 07:51, -10, 93, -12 ,4, 4, N, None, None, ,  
02/09/2018 07:51, -10, 93, -12 ,4, 4, N, None, None, ,  
02/09/2018 07:40, -10, 93, -12 ,4, 5, NW, None, None, ,  
02/09/2018 07:36, -10, 93, -11 ,4, 5, NW, None, None, ,  
02/09/2018 07:30, -10, 93, -12 ,4, 4, NW, None, None, ,  
02/09/2018 07:21, -10, 93, -11 ,2, 4, NW, None, None, ,  
02/09/2018 07:20, -10, 93, -11 ,2, 4, NW, None, None, ,  
02/09/2018 07:10, -9, 93, -11 ,4, 6, NW, None, None, ,  
02/09/2018 07:05, -9, 93, -11 ,5, 6, NW, None, None, ,  
02/09/2018 07:00, -9, 93, -11 ,5, 6, NW, None, None, ,  
02/09/2018 06:51, -10, 93, -11 ,5, 6, NW, None, None, ,  
02/09/2018 06:50, -10, 93, -11 ,5, 6, NW, None, None, ,  
02/09/2018 06:40, -9, 93, -10 ,6, 6, NW, None, None, ,  
02/09/2018 06:37, -9, 93, -10 ,4, 7, W, None, None, ,  
02/09/2018 06:30, -9, 93, -10 ,6, 9, NW, None, None, ,  
02/09/2018 06:22, -8, 94, -9 ,9, 9, NW, None, None, ,  
02/09/2018 06:20, -8, 94, -9 ,9, 9, NW, None, None, ,  
02/09/2018 06:10, -7, 94, -8 ,9, 11, N, None, None, ,  
02/09/2018 06:06, -7, 94, -9 ,10, 11, N, None, None, ,  
02/09/2018 06:00, -7, 94, -9 ,9, 10, N, None, None, ,  
02/09/2018 05:52, -7, 94, -8 ,9, 9, N, None, None, ,  
02/09/2018 05:50, -7, 94, -8 ,9, 10, N, None, None, ,  
02/09/2018 05:40, -7, 94, -8 ,9, 10, N, None, None, ,  
02/09/2018 05:37, -7, 94, -8 ,9, 10, N, None, None, ,  
02/09/2018 05:30, -6, 94, -7 ,9, 10, N, None, None, ,  
02/09/2018 05:22, -6, 94, -7 ,10, 11, N, None, None, ,  
02/09/2018 05:20, -5, 94, -7 ,10, 11, N, None, None, ,  
02/09/2018 05:10, -5, 94, -6 ,9, 9, N, None, None, ,  
02/09/2018 05:07, -5, 94, -6 ,8, 9, N, None, None, ,  
02/09/2018 05:00, -5, 94, -6 ,7, 9, N, None, None, ,  
02/09/2018 04:51, -5, 94, -6 ,8, 9, N, None, None, ,  
02/09/2018 04:50, -5, 94, -6 ,7, 8, N, None, None, ,  
02/09/2018 04:39, -5, 94, -6 ,7, 8, N, None, None, ,  
02/09/2018 04:36, -5, 94, -6 ,7, 9, N, Yes, , ,  
02/09/2018 04:29, -5, 94, -6 ,7, 9, N, Yes, , ,  
02/09/2018 04:21, -5, 94, -6 ,8, 11, N, None, None, ,  
02/09/2018 04:19, -5, 94, -6 ,8, 11, N, Yes, , ,  
02/09/2018 04:09, -4, 94, -5 ,10, 11, N, None, None, ,  
02/09/2018 04:06, -4, 94, -5 ,9, 11, N, None, None, ,  
02/09/2018 03:59, -4, 94, -5 ,9, 11, N, None, None, ,  
02/09/2018 03:52, -4, 94, -5 ,10, 11, N, None, None, ,  
02/09/2018 03:49, -4, 94, -5 ,11, 11, N, Yes, , ,  
02/09/2018 03:39, -4, 94, -5 ,9, 11, N, None, None, ,  
02/09/2018 03:37, -4, 94, -5 ,9, 11, N, Yes, , ,  
02/09/2018 03:29, -4, 94, -5 ,9, 11, N, Yes, , ,  
02/09/2018 03:21, -4, 94, -5 ,9, 11, N, Yes, , ,  
02/09/2018 03:19, -4, 94, -5 ,9, 11, N, Yes, , ,  
02/09/2018 03:09, -4, 94, -5 ,9, 11, N, Yes, , ,  
02/09/2018 03:06, -4, 94, -5 ,7, 11, N, Yes, , ,  
02/09/2018 02:59, -4, 94, -5 ,9, 11, N, Yes, , ,  
02/09/2018 02:51, -4, 94, -5 ,7, 11, N, Yes, , ,  
02/09/2018 02:49, -4, 94, -5 ,9, 11, N, Yes, , ,  
02/09/2018 02:39, -4, 94, -5 ,7, 10, N, Yes, , ,  
02/09/2018 02:36, -4, 94, -5 ,8, 10, N, Yes, , ,  
02/09/2018 02:29, -4, 94, -5 ,7, 11, N, Yes, , ,  
02/09/2018 02:21, -4, 94, -5 ,8, 11, N, Yes, , ,  
02/09/2018 02:19, -4, 94, -5 ,7, 11, N, Yes, , ,  
02/09/2018 02:09, -4, 94, -5 ,9, 12, N, Yes, , ,  
02/09/2018 02:06, -4, 94, -5 ,9, 12, N, Yes, , ,  
02/09/2018 01:59, -4, 94, -5 ,10, 12, N, Yes, , ,  
02/09/2018 01:51, -4, 94, -5 ,10, 12, N, Yes, , ,  
02/09/2018 01:48, -4, 94, -5 ,9, 12, N, Yes, , ,  
02/09/2018 01:38, -4, 94, -5 ,10, 12, N, Yes, , ,  
02/09/2018 01:36, -4, 94, -5 ,10, 12, N, Yes, , ,  
02/09/2018 01:28, -4, 94, -5 ,9, 14, N, Yes, , ,  
02/09/2018 01:21, -4, 94, -5 ,11, 17, N, Yes, , ,  
02/09/2018 01:18, -4, 94, -5 ,12, 17, N, Yes, , ,  
02/09/2018 01:08, -4, 94, -5 ,10, 14, N, Yes, , ,  
02/09/2018 01:06, -4, 94, -5 ,10, 13, N, Yes, , ,  
02/09/2018 00:58, -4, 94, -5 ,9, 12, N, Yes, , ,  
02/09/2018 00:52, -4, 94, -5 ,9, 12, N, Yes, , ,  
02/09/2018 00:48, -4, 94, -5 ,9, 12, N, None, None, ,  
02/09/2018 00:38, -4, 94, -5 ,9, 12, N, Yes, , ,  
02/09/2018 00:36, -4, 94, -5 ,10, 12, N, Yes, , ,  
02/09/2018 00:28, -4, 94, -5 ,11, 12, N, None, None, ,  
02/09/2018 00:21, -4, 94, -5 ,10, 13, N, Yes, , ,  
02/09/2018 00:18, -4, 94, -5 ,10, 13, N, Yes, , ,  
02/09/2018 00:08, -4, 94, -5 ,9, 12, N, Yes, , ,  
02/09/2018 00:06, -4, 94, -5 ,9, 12, N, Yes, , ,  
02/08/2018 23:58, -4, 94, -5 ,10, 12, N, None, None, ,  
02/08/2018 23:51, -4, 94, -5 ,9, 12, N, Yes, , ,  
02/08/2018 23:48, -4, 94, -5 ,9, 12, N, Yes, , ,  
02/08/2018 23:38, -4, 94, -5 ,9, 12, N, Yes, , ,  
02/08/2018 23:36, -4, 94, -5 ,8, 12, N, Yes, , ,  
02/08/2018 23:28, -4, 94, -5 ,11, 14, N, Yes, , ,  
02/08/2018 23:21, -4, 94, -5 ,11, 14, N, None, None, ,  
02/08/2018 23:18, -4, 94, -5 ,11, 14, N, Yes, , ,  
02/08/2018 23:08, -4, 94, -5 ,10, 14, N, Yes, , ,  
02/08/2018 23:06, -4, 94, -5 ,9, 14, N, Yes, , ,  
02/08/2018 22:58, -4, 94, -5 ,11, 15, N, None, None, ,  
02/08/2018 22:51, -3, 94, -5 ,11, 14, N, Yes, , ,  
02/08/2018 22:47, -4, 94, -5 ,11, 14, N, None, None, ,  
02/08/2018 22:37, -3, 94, -5 ,11, 16, N, Yes, , ,  
02/08/2018 22:36, -3, 94, -5 ,12, 16, N, Yes, , ,  
02/08/2018 22:27, -3, 95, -4 ,11, 16, N, Yes, , ,  
02/08/2018 22:21, -3, 95, -4 ,12, 16, N, Yes, , ,  
02/08/2018 22:17, -3, 95, -4 ,11, 16, N, Yes, , ,  
02/08/2018 22:07, -3, 95, -4 ,11, 14, N, Yes, , ,  
02/08/2018 22:06, -3, 95, -4 ,11, 14, NE, Yes, , ,  
02/08/2018 21:57, -3, 95, -4 ,12, 16, N, Yes, , ,  
02/08/2018 21:51, -3, 95, -3 ,12, 14, N, Yes, , ,  
02/08/2018 21:47, -3, 95, -3 ,11, 14, N, Yes, , ,  
02/08/2018 21:37, -2, 95, -3 ,12, 14, NE, Yes, , ,  
02/08/2018 21:36, -2, 95, -3 ,12, 14, NE, Yes, , ,  
02/08/2018 21:27, -2, 95, -3 ,11, 14, N, Yes, , ,  
02/08/2018 21:21, -2, 95, -3 ,10, 15, N, Yes, , ,  
02/08/2018 21:17, -2, 95, -3 ,10, 16, N, Yes, , ,  
02/08/2018 21:07, -2, 95, -3 ,12, 17, N, None, None, ,  
02/08/2018 21:06, -2, 95, -3 ,12, 17, N, None, None, ,  
02/08/2018 20:57, -2, 95, -3 ,16, 17, N, None, None, ,  
02/08/2018 20:51, -1, 95, -2 ,13, 16, N, None, None, ,  
02/08/2018 20:47, -1, 95, -2 ,13, 16, N, None, None, ,  
02/08/2018 20:37, -1, 95, -2 ,12, 15, N, None, None, ,  
02/08/2018 20:36, -1, 95, -2 ,12, 15, N, None, None, ,  
02/08/2018 20:27, -1, 95, -2 ,13, 16, N, None, None, ,  
02/08/2018 20:21, -1, 95, -2 ,12, 16, N, None, None, ,  
02/08/2018 20:17, -1, 95, -2 ,14, 16, N, None, None, ,  
02/08/2018 20:06, -1, 95, -2 ,11, 14, N, None, None, ,  
02/08/2018 20:06, -1, 95, -2 ,11, 14, N, None, None, ,  
02/08/2018 19:56, -1, 95, -2 ,12, 16, N, None, None, ,  
02/08/2018 19:51, -1, 95, -2 ,12, 17, N, Yes, , ,  
02/08/2018 19:46, -1, 95, -2 ,12, 18, N, Yes, , ,  
Change End Date:

Copyright © 1998-2015 Vaisala, Inc.
All Rights Reserved
Send comments about the data to:
SCAN Web ® is a registered trademark of Vaisala, Inc.
SCAN Web Version 6.0